Wind_Speed
36 34 40 42 37 38 35 37 38 40 33 35 31 32 31 34 31 33 30 29 30 29 28 27 26 26 28 29 32 34 37 39 41 41 43 47 50 51 54 56 60 64 66 70
45 40 45 42 39 38 37 39 40 44 33 36 35 32 35 33 38 34 33 34 32 33 30 30 31 32 33 34 37 39 41 43 47 51 53 53 55 58 59 61 66 68 71 74
48 47 48 45 43 41 41 39 42 42 40 40 40 32 37 38 38 42 40 36 36 35 34 34 34 35 37 40 43 46 48 51 52 53 56 59 58 60 60 63 67 70 73 74
50 52 47 51 46 50 45 45 43 43 41 39 42 31 36 41 42 41 51 40 38 38 38 37 37 39 42 44 46 48 51 55 57 58 59 61 61 61 65 67 69 70 75 82
54 56 53 55 58 56 50 50 46 46 42 38 36 35 31 41 42 46 49 44 42 43 43 44 44 45 45 45 46 50 54 57 59 60 61 63 65 66 69 72 74 77 81 85
58 57 57 59 60 60 56 57 53 51 47 35 40 42 29 40 41 46 49 48 45 46 46 48 49 49 48 49 52 54 55 53 56 58 60 63 68 72 75 76 78 80 83 88
62 58 58 61 62 62 60 58 55 50 47 43 47 42 34 42 48 51 49 49 49 51 52 54 53 53 53 54 55 58 59 61 61 64 67 70 73 78 81 84 85 86 91 94
61 60 60 59 60 61 58 56 55 53 53 48 48 42 43 47 53 56 55 55 55 56 56 54 54 55 56 57 59 62 65 68 70 71 72 74 80 82 85 85 88 93 96 98
66 65 63 62 63 62 54 51 58 61 59 54 47 45 48 49 57 58 58 59 60 60 59 58 58 60 62 63 65 67 69 72 72 72 74 78 81 84 87 91 93 96 100 104
77 75 69 64 63 63 57 53 57 58 56 55 51 48 48 53 59 62 62 62 61 61 62 61 61 63 66 68 69 71 73 75 75 75 77 81 83 84 87 92 96 101 102 104
75 73 69 66 60 64 63 58 62 64 62 59 56 51 54 53 54 58 61 62 63 64 65 63 64 64 66 69 70 72 77 79 81 83 84 85 87 90 93 99 103 107 111 115
78 79 73 69 66 63 62 63 67 71 68 65 64 46 57 56 56 59 63 64 64 65 65 66 66 68 71 73 73 74 78 81 83 85 87 89 94 98 103 107 110 115 116 113
83 85 82 75 69 68 69 70 70 71 69 62 69 50 59 64 63 65 67 67 68 69 69 70 71 73 74 76 80 81 79 80 80 84 88 92 97 102 105 106 108 113 116 117
87 85 80 75 77 76 74 75 75 74 68 69 62 62 66 71 70 70 70 71 73 74 74 74 76 77 80 84 86 85 86 88 90 92 95 98 103 104 104 107 103 105 108 109
88 88 86 80 81 83 80 79 78 78 69 76 61 70 69 74 76 75 74 74 76 78 78 78 80 82 85 86 87 89 92 93 98 100 103 103 102 101 104 104 105 108 110 110
90 88 89 86 85 86 88 86 80 83 79 80 74 70 77 80 79 78 78 79 79 79 80 82 84 86 88 87 88 91 92 93 95 94 98 100 103 105 110 107 110 117 116 117
94 92 92 88 89 92 97 82 89 86 84 85 82 72 85 85 85 84 86 86 87 86 87 88 91 93 94 94 95 97 96 97 97 101 103 109 111 112 115 114 117 122 127 133
98 95 97 97 99 100 83 88 90 92 86 85 84 83 86 87 90 91 89 90 91 91 91 92 96 98 96 94 94 93 97 98 101 106 113 117 118 118 121 121 125 132 140 144
105 103 104 104 102 103 96 92 95 97 86 90 89 88 89 93 95 95 96 96 97 94 97 98 99 96 96 98 98 103 103 106 113 114 120 123 122 123 126 131 136 141 148 149
105 105 108 107 106 104 94 97 98 97 88 90 95 96 97 99 99 98 98 95 94 95 99 102 106 102 107 106 105 108 109 113 119 120 126 126 127 129 130 138 143 146 148 152
108 108 105 101 104 101 97 98 100 104 96 98 95 95 96 97 99 99 101 100 97 99 101 104 102 105 107 111 109 113 116 119 125 126 126 128 132 129 141 145 149 152 152 155
112 109 104 103 102 102 100 103 106 106 101 98 96 95 96 98 100 100 102 106 110 106 105 108 107 110 114 109 115 119 122 130 129 129 129 132 134 145 151 152 155 154 157 155
108 106 103 102 103 102 100 109 109 107 108 103 100 100 99 101 102 103 103 105 108 107 110 112 115 116 117 117 124 126 126 130 130 132 134 136 149 155 156 156 161 160 158 161
116 114 114 111 108 107 110 116 120 115 110 108 109 107 106 105 106 106 109 114 117 115 115 116 119 122 126 126 131 130 131 133 136 138 142 150 158 161 160 161 162 161 159 143
122 121 120 121 120 118 119 118 117 115 117 113 110 112 111 112 110 113 118 120 116 121 119 126 125 128 127 131 133 134 135 136 139 146 151 154 160 163 163 162 161 155 139 137
122 123 123 119 119 121 122 121 120 122 120 120 122 119 117 115 122 124 123 122 129 132 132 127 127 132 134 136 136 139 141 147 148 155 157 164 164 164 163 159 147 137 137 134
Wind_Direction
263 262 259 258 261 263 259 258 261 251 247 251 248 252 244 255 253 257 264 263 264 268 271 275 277 281 285 289 294 295 296 298 298 296 295 297 298 298 299 299 299 300 299 300
260 260 259 260 260 261 260 256 258 261 246 253 252 252 254 247 257 255 258 262 266 267 272 276 280 284 287 291 292 291 292 293 294 294 295 295 295 294 293 293 295 297 296 297
256 258 259 255 259 260 262 259 260 260 255 254 254 254 259 256 251 260 255 259 263 267 270 273 277 283 285 287 289 291 293 292 292 291 291 291 292 292 292 294 294 291 289 290
255 257 251 258 258 260 260 262 260 262 258 258 261 252 261 261 254 252 258 256 260 263 267 271 274 276 279 284 288 289 290 291 290 287 284 285 287 287 291 293 292 287 288 290
250 255 257 257 260 260 260 262 264 264 261 259 266 253 258 266 257 255 259 257 258 263 266 270 272 276 280 283 288 289 291 289 288 286 284 283 286 288 290 290 290 289 289 290
255 253 257 258 260 261 262 263 264 264 264 262 262 262 245 264 271 266 262 265 264 266 268 272 275 277 279 281 284 289 291 292 291 291 290 290 291 288 287 286 286 287 289 289
253 255 254 259 260 262 262 266 270 271 271 264 264 266 253 259 266 271 269 270 270 269 271 272 275 277 279 281 284 285 287 290 292 292 292 291 288 288 288 288 288 287 288 289
254 255 256 258 261 261 264 266 270 265 261 261 264 264 263 261 261 264 269 274 275 273 274 275 277 278 280 281 282 283 286 289 291 292 292 291 290 290 290 288 286 287 289 291
252 253 254 257 258 262 265 267 264 266 266 265 264 261 262 266 266 267 269 271 273 274 273 275 277 278 280 282 284 285 286 289 291 292 290 289 289 289 288 288 285 288 292 293
260 259 258 257 260 263 261 258 264 268 269 268 268 264 263 261 264 268 270 271 272 273 273 275 281 284 282 283 284 285 286 287 287 285 284 284 286 286 285 286 288 290 292 294
261 263 260 257 260 263 264 262 263 268 270 269 266 266 269 268 267 269 271 272 274 275 278 281 282 283 283 284 286 287 286 286 285 284 283 283 285 286 287 288 289 290 290 292
258 258 261 259 256 260 266 268 266 268 268 268 269 268 268 269 268 269 271 274 277 279 281 283 283 282 284 286 285 284 285 285 285 285 287 288 288 289 289 290 290 288 291 292
258 260 261 263 266 262 260 261 263 267 268 272 270 274 268 271 270 269 271 273 278 280 279 280 283 285 284 284 283 284 286 288 288 288 288 289 289 290 292 292 291 289 290 288
255 257 261 263 261 261 261 263 267 267 269 269 271 272 272 272 273 274 275 275 274 276 278 280 280 281 282 282 283 286 286 287 287 288 287 287 289 290 290 294 299 298 295 301
254 256 257 257 260 261 261 261 262 266 268 269 270 272 274 274 274 274 275 276 277 278 278 279 281 283 284 285 286 286 286 286 287 288 288 287 291 296 294 295 302 303 308 302
254 254 254 254 257 260 261 260 261 263 266 268 269 273 274 271 273 277 277 277 277 278 280 280 282 283 284 284 286 286 285 286 286 285 294 296 297 300 303 304 307 312 311 313
252 253 254 254 257 259 258 265 264 263 265 267 268 269 270 274 273 274 276 278 279 280 281 281 284 288 288 285 284 285 287 288 292 293 299 302 302 305 307 306 312 313 315 314
253 254 256 256 255 259 264 262 264 267 268 269 267 267 270 274 274 274 277 278 279 280 283 283 285 289 287 285 286 287 293 297 303 301 304 306 308 307 311 312 313 314 313 312
253 253 256 258 259 262 259 262 265 266 268 273 275 273 272 272 272 274 276 277 279 283 286 284 286 289 293 292 294 299 299 302 303 304 305 308 309 312 312 312 311 309 309 310
257 258 259 260 261 264 263 264 263 266 269 273 274 275 275 274 275 276 276 277 281 284 287 285 282 290 294 297 297 300 300 301 301 301 306 308 310 310 311 308 308 308 309 309
259 262 264 263 263 263 263 262 265 268 272 271 271 271 272 272 272 275 277 277 284 283 284 289 291 291 295 295 297 298 298 299 301 302 305 308 308 307 305 308 309 309 310 312
261 262 264 263 263 262 264 263 265 269 273 273 270 269 271 272 273 274 274 275 277 285 285 286 291 290 295 293 297 301 297 298 302 305 304 303 305 305 307 308 309 311 310 311
259 260 259 258 260 264 266 270 271 273 275 271 274 274 273 274 274 274 274 275 283 286 286 283 286 289 295 295 297 299 299 299 300 300 301 299 303 305 307 308 308 309 310 309
254 254 256 259 261 263 266 268 272 273 276 275 274 278 278 280 278 279 279 281 280 284 289 288 288 291 293 293 296 299 299 300 300 299 300 300 303 306 306 307 308 308 307 307
254 255 257 258 261 265 269 270 270 273 274 273 273 277 276 279 277 276 278 282 283 288 288 290 288 290 290 295 297 299 297 297 297 298 302 303 303 304 305 306 306 306 305 305
253 255 257 260 261 263 265 267 268 271 272 272 276 275 277 276 279 279 281 281 286 287 291 289 290 292 291 293 294 297 296 296 296 297 301 302 303 304 304 305 304 304 305 304
Height
10734 10737 10732 10732 10737 10737 10740 10740 10740 10740 10748 10746 10749 10749 10751 10749 10750 10750 10751 10752 10751 10751 10751 10752 10753 10753 10752 10752 10750 10749 10748 10746 10745 10743 10742 10739 10736 10734 10731 10729 10725 10721 10718 10712
10726 10728 10722 10726 10727 10728 10729 10731 10730 10731 10741 10738 10740 10743 10743 10745 10741 10744 10744 10744 10744 10744 10744 10745 10745 10745 10745 10745 10744 10742 10741 10740 10737 10735 10732 10729 10727 10723 10721 10718 10715 10711 10705 10702
10715 10716 10714 10716 10716 10719 10719 10723 10722 10724 10730 10730 10733 10739 10735 10736 10737 10732 10735 10736 10736 10736 10737 10737 10738 10738 10738 10737 10736 10735 10734 10732 10729 10726 10722 10720 10717 10713 10710 10706 10703 10698 10693 10687
10706 10703 10706 10703 10708 10706 10712 10711 10713 10713 10720 10724 10725 10736 10729 10723 10727 10728 10717 10728 10728 10727 10727 10728 10729 10729 10728 10728 10727 10725 10723 10721 10718 10715 10711 10708 10706 10703 10699 10694 10690 10685 10679 10674
10695 10692 10695 10696 10693 10694 10701 10700 10704 10704 10709 10717 10718 10722 10722 10713 10715 10712 10712 10717 10718 10717 10718 10718 10718 10718 10718 10717 10716 10714 10712 10709 10706 10702 10699 10696 10693 10689 10685 10681 10676 10670 10664 10657
10676 10681 10683 10682 10680 10682 10689 10688 10691 10694 10698 10712 10705 10705 10722 10705 10704 10701 10702 10703 10707 10707 10707 10706 10706 10706 10705 10704 10702 10701 10699 10695 10693 10690 10686 10682 10679 10674 10669 10664 10658 10654 10647 10639
10655 10667 10671 10670 10670 10669 10674 10677 10680 10685 10688 10696 10693 10699 10711 10702 10693 10687 10689 10690 10693 10693 10693 10692 10694 10693 10692 10690 10689 10687 10684 10681 10679 10675 10672 10668 10663 10658 10653 10648 10642 10635 10627 10619
10647 10650 10655 10659 10656 10656 10664 10666 10666 10667 10673 10680 10683 10692 10692 10686 10681 10677 10677 10677 10678 10678 10679 10679 10680 10679 10677 10675 10673 10671 10669 10666 10663 10659 10655 10650 10645 10641 10635 10629 10622 10615 10608 10598
10628 10635 10640 10643 10643 10644 10655 10656 10645 10653 10659 10666 10673 10676 10677 10676 10666 10666 10666 10663 10662 10663 10664 10665 10665 10664 10663 10661 10659 10656 10653 10650 10646 10642 10638 10633 10628 10622 10616 10609 10602 10595 10586 10577
10612 10620 10631 10632 10630 10632 10640 10641 10635 10636 10643 10649 10660 10662 10664 10660 10654 10653 10652 10649 10648 10648 10648 10650 10651 10650 10648 10646 10644 10640 10636 10632 10629 10625 10620 10614 10608 10602 10595 10588 10580 10572 10564 10554
10597 10604 10615 10618 10624 10616 10621 10629 10625 10622 10628 10632 10642 10651 10647 10647 10645 10641 10637 10636 10634 10632 10634 10636 10635 10635 10632 10630 10628 10624 10619 10615 10611 10607 10601 10594 10588 10581 10574 10566 10558 10549 10540 10530
10584 10582 10595 10601 10608 10608 10608 10611 10611 10607 10611 10617 10621 10647 10631 10632 10631 10627 10623 10622 10621 10620 10620 10620 10619 10617 10616 10614 10610 10605 10601 10597 10594 10588 10581 10575 10567 10559 10551 10543 10533 10523 10513 10503
10569 10567 10574 10585 10595 10599 10593 10589 10592 10591 10597 10614 10602 10633 10615 10608 10613 10612 10609 10609 10608 10606 10604 10603 10602 10601 10598 10594 10589 10586 10583 10577 10573 10566 10559 10552 10543 10534 10527 10516 10505 10497 10487 10473
10546 10552 10564 10574 10570 10570 10575 10575 10574 10576 10588 10589 10600 10598 10597 10593 10594 10593 10594 10594 10591 10590 10588 10588 10585 10583 10580 10574 10570 10567 10562 10555 10550 10544 10535 10528 10519 10511 10501 10490 10479 10467 10455 10444
10529 10535 10543 10557 10552 10548 10556 10560 10561 10561 10576 10562 10594 10577 10576 10572 10571 10573 10576 10575 10573 10570 10569 10567 10566 10563 10559 10556 10551 10545 10540 10534 10526 10519 10511 10504 10494 10485 10475 10463 10451 10437 10424 10411
10510 10520 10519 10534 10536 10530 10527 10536 10551 10550 10554 10549 10560 10573 10553 10548 10551 10555 10556 10554 10552 10551 10548 10544 10542 10541 10538 10534 10528 10522 10516 10511 10502 10493 10484 10478 10467 10455 10446 10432 10418 10404 10391 10377
10494 10500 10502 10513 10507 10504 10499 10540 10519 10531 10538 10536 10541 10558 10531 10533 10535 10535 10533 10532 10529 10526 10525 10523 10520 10517 10513 10510 10504 10496 10489 10484 10473 10462 10454 10447 10437 10424 10412 10399 10385 10372 10358 10346
10475 10481 10479 10488 10486 10475 10520 10508 10506 10501 10516 10516 10518 10523 10519 10516 10510 10508 10513 10509 10506 10504 10504 10500 10494 10491 10487 10484 10478 10469 10461 10453 10442 10434 10424 10414 10408 10394 10378 10365 10353 10341 10329 10317
10455 10459 10456 10457 10465 10470 10489 10497 10487 10480 10504 10490 10495 10497 10497 10489 10485 10490 10490 10485 10481 10483 10479 10473 10469 10465 10459 10452 10448 10438 10428 10420 10412 10403 10397 10388 10375 10361 10347 10335 10325 10314 10301 10287
10430 10434 10435 10438 10439 10445 10477 10468 10467 10462 10482 10479 10466 10468 10466 10465 10466 10467 10460 10462 10462 10458 10454 10450 10444 10439 10432 10426 10418 10410 10400 10393 10387 10380 10370 10356 10343 10332 10319 10311 10300 10284 10270 10256
10407 10407 10413 10419 10413 10424 10443 10445 10442 10439 10458 10454 10449 10446 10443 10443 10445 10445 10438 10439 10437 10433 10428 10424 10420 10416 10409 10401 10393 10384 10375 10367 10362 10352 10340 10326 10314 10304 10296 10282 10268 10252 10236 10220
10383 10384 10390 10394 10392 10399 10419 10417 10416 10415 10420 10424 10424 10421 10419 10422 10421 10422 10419 10415 10411 10407 10404 10398 10393 10389 10382 10374 10367 10358 10350 10340 10332 10320 10308 10297 10286 10278 10264 10249 10235 10218 10203 10186
10356 10360 10365 10367 10373 10377 10384 10385 10386 10389 10391 10393 10396 10398 10396 10395 10394 10393 10391 10389 10387 10383 10378 10372 10367 10360 10353 10345 10340 10332 10321 10312 10300 10291 10278 10268 10257 10247 10231 10215 10202 10186 10170 10156
10329 10336 10339 10345 10354 10355 10357 10359 10359 10360 10362 10365 10366 10368 10368 10367 10367 10364 10362 10360 10355 10351 10347 10342 10335 10329 10323 10318 10310 10299 10288 10280 10270 10259 10249 10239 10227 10212 10199 10183 10170 10156 10140 10124
10305 10308 10316 10321 10327 10327 10330 10331 10332 10334 10335 10337 10338 10339 10339 10337 10335 10333 10330 10326 10323 10319 10315 10312 10305 10297 10290 10285 10276 10268 10258 10248 10239 10229 10216 10207 10195 10180 10167 10153 10139 10125 10108 10094
10282 10282 10283 10289 10294 10299 10305 10307 10308 10310 10309 10311 10311 10310 10308 10306 10304 10300 10295 10293 10292 10289 10284 10276 10271 10264 10256 10251 10246 10238 10227 10216 10206 10198 10185 10176 10164 10150 10136 10122 10106 10093 10079 10063